Погода в Череповеце

Хотите узнать прогноз погоды в Череповеце? Тогда Вам сюда: Погода в Череповеце

Поиск расширенной информации на нашем сайте:

Полезная информация:

Новости сайта



02.01.2020
Опубликован Долгосрочный прогноз погоды по городам России и ближнего зарубежья на январь 2020 года.
Карты: Прогноз на январь и февраль 2020 года, Сравнение прогнозируемой аномалии приземной температуры воздуха на январь 2020 года по разным моделям.




Погода в Череповеце - сегодня

Время (UTC), дата Ветер
(°,м/с) 
Видим.   Явления Облачность Т
(°С)
Тd
(°С)
f(%) Тe
(°С)
Pmin
(гПа)
dP
(гПа)
Po
(мм)
O2
(г/м3)
Тmin Tmax R s Состояние
почвы
15 09.08.20 360 (С) 10 км    3/3 1000 м средняя 
[Cu med, cong|Ac trans]
+21.3 +10.1 49 +23  1015.9  -0.6  752  279    +22.9       
18 09.08.20 тихо ()   10 км    3/0 средняя, верхняя 
[Ac trans|Ci fib]
+13.3 +12.4 94 +18  1016.3  752  286           
21 09.08.20 тихо ()   10 км    3/0 верхняя 
[Ci fib]
+10.7 +10.5 99 +12  1016.7  0.2  752  290           
00 10.08.20 180 (Ю) 10 км    6/0 средняя, верхняя 
[Ac trans|Ci fib]
+10.8 +10.6 99 +14  1016  -0.6  751  289           
03 10.08.20 тихо ()   4100 м  слаб. ливневой дождь  10/10 270 м кучево-дожд. 
[Cb calv]
+12.1 +11.9 99 +16  1016  751  288  +10.2      влажная 
06 10.08.20 190 (Ю) 10 км  {ливн. осадки}  8/6 1000 м кучево-дожд., средняя 
[Cb calv|Ac trans]
+17.1 +15.7 91 +28  1013.1  -2.6  749  281           
09 10.08.20 250 (З) 10 км    9/8 900 м кучево-дожд., средняя 
[Cb calv|Ac trans]
+21.9 +17.2 75 +35  1012  -0.8  749  276           
12 10.08.20 тихо ()   10 км  гроза без осадков{ливн. осадки}  8/6 750 м кучево-дожд., средняя 
[Cb cap|Ac trans]
+23.6 +17.7 70 +37  1011  -1  748  273           
15 10.08.20 310 (СЗ) 2{10}  10 км  гроза, ливневой дождь  8/4 600 м кучево-дожд., средняя, верхняя 
[Cb cap|Ac trans|Ci fib]
+18.4 +17.1 92 +32  1011.3  0.1  748  279    +24     
18 10.08.20 тихо ()   10 км  {гроза, ливн. осадки}  8/4 600 м кучево-дожд., средняя, верхняя 
[Cb calv|Ac trans|Ci fib]
+16.1 +15.9 99 +26  1011.7  0.3  748  281           
21 10.08.20 340 (С) 10 км  в посл. час ливневой дождь  10/4 600 м кучево-дожд., средняя 
[Cb calv|Ac trans]
+15.2 +14.1 93 +24  1012.4  0.6  749  283           
00 11.08.20 тихо ()   10 км  {ливн. осадки}  8/4 1000 м средняя 
[Sc|Ac trans]
+13.2 +12.1 93 +17  1012.7  0.2  749  286           
03 11.08.20 290 (З) 10 км    4/4 1000 м 
[Sc]
+11.3 +10.9 97 +14  1012.8  749  288  +11.1    0.0    влажная 
06 11.08.20 310 (СЗ) 10 км    10/10 330 м 
[Sc]
+13.5 +11 85 +17  1012.7  749  286           
09 11.08.20 300 (СЗ) 10 км  {ливн. осадки}  9/6 540 м кучево-дожд., средняя 
[Cb calv|Ac trans]
+15.7 +11.4 76 +19  1012.5  -0.1  749  283           
12 11.08.20 310 (СЗ) 10 км  {ливн. осадки}  10/6 570 м кучево-дожд., средняя 
[Cb calv|Ac trans]
+15.1 +11.2 78 +18  1013.1  0.6  749  284           
15 11.08.20 300 (СЗ) 10 км  {ливн. осадки}  8/4 600 м кучево-дожд., средняя, верхняя 
[Cb calv|Ac trans|Ci fib]
+15.8 +12.5 81 +22  1012.8  -0.3  749  283    +17.8     
18 11.08.20 тихо ()   10 км  слаб. ливневой дождь  10/6 450 м кучево-дожд., средняя 
[Cb calv|Ac trans]
+12.6 +12.2 97 +17  1012.9  749  286           
21 11.08.20 350 (С) 10 км  слаб. ливневой дождь  10/10 240 м кучево-дожд. 
[Cb calv]
+13.2 +13 99 +18  1012.6  -0.3  749  285           
00 12.08.20 020 (С) 4{10}  10 км  слаб. ливневой дождь  10/10 210 м кучево-дожд. 
[Cb calv]
+12.3 +11.9 97 +16  1013.6  0.9  750  287           
03 12.08.20 020 (С) 6{10}  5000 м  слаб. ливневой дождь  10/10 180 м кучево-дожд. 
[Cb calv]
+11.7 +11.1 96 +13  1013.9  0.3  750  288  +11.7      влажная 
06 12.08.20 010 (С) 6{11}  10 км  {ливн. осадки}  10/10 210 м кучево-дожд. 
[Cb calv]
+11.9 +10.9 94 +13  1015.1  1.2  751  288  +11.4         
09 12.08.20 010 (С) 7-10{11}  10 км    8/6 630 м кучево-дожд., средняя 
[Cb calv|Ac trans]
+14.7 +10.3 75 +16  1015.5  0.6  751  285           
12 12.08.20 020 (С) 5{11}  10 км    9/6 1200 м средняя 
[Sc|Ac trans]
+15.3 +8.9 66 +15  1016.4  0.6  752  285           
15 12.08.20 020 (С) 10 км    10/8 1320 м средняя 
[Sc|Ac trans]
+15 +8.5 65 +15  1016.1  752  286    +15.6     
Время (UTC), дата Ветер
(°,м/с) 
Видим.   Явления Облачность Т
(°С)
Тd
(°С)
f(%) Тe
(°С)
Pmin
(гПа)
dP
(гПа)
Po
(мм)
O2
(г/м3)
Тmin Tmax R s Состояние
почвы

Для получения пояснительной информации подведите курсор к названию столбца.

ПОГОДА в Череповеце - архив

Всё, что Вы хотите узнать о погоде в Череповеце - удобно и подробно!

Выберите нужную дату (начиная с 1 января 2019* года) и нажмите кнопку "Найти".
Будут отображены архивные сводки погоды по пункту Череповец, начиная с указанной даты.


Отображать данные в формате CSV (для использования в таблицах Excel)


Внимание! Наш архив погоды предназначен исключительно для личного некоммерческого использования в познавательных целях. Если Вам необходимы официальные справки о состоянии погоды (для производственных, юридических, коммерческих и т.п. целей), обращайтесь в органы Росгидромета.

*Примечание: данная дата относится к архиву по метеостанциям СССР (Россия, СНГ, Балтия).
Архив по метеостанциям Зарубежной Европы и Азии (кроме Китая) хранится 10 дней, по другим регионам земного шара (Китай, Африка, Америка, Австралия, Океания) - 1 день.

Череповец - район местоположения метеостанции


Название, широта, долгота, высота метеостанции:
Череповец 59.2°ш. 38°д. 114 м над ур. моря [Российская Федерация]

Дополнительная информация

В oтличие oт бoльшинства пoгoдных сайтoв мы публикуем пoдрoбную метеoинфoрмацию в детальнoм прoфессиoнальнoм фoрмате.

Характеристики температуры и влажнoсти вoздуха измеряются на высoте 2 м в тени вдали oт зданий и деревьев.
Скoрoсть ветра измеряется на высoте 10 м (на урoвне рoста челoвека скoрoсть ветра ниже в 1.5-2 раза). Если метеoстанция нахoдится в гoрoде или в лесу, тo скoрoсть ветра занижена на 2-4 м/с пo сравнению с oткрытым местoм. Скoрoсть ветра над акватoриями крупных рек и oзёр, а также на вершинах хoлмoв на 2-5 м/с выше, чем в oбычных услoвиях.
Атмoсфернoе давление в разных тoчках местнoсти мoжет значительнo oтличаться oт давления на метеoстанции, в зависимoсти oт услoвий рельефа (при пoдъёме на 10 м давление пoнижается примернo на 1 мм рт.ст.).